Location: Hopewell Observatory
(38.8698°N, 77.6988°W)
Time: 11:41:59
(UTC-04:00)

Daily predictions for brighter satellites

Satellite Brightness Start Highest point End
(mag) Time Altitude Azimuth Time Altitude Azimuth Time Altitude Azimuth
Cosmos 2016 Rocket 4.3 20:46:53 10° SSW 20:52:58 74° W 20:59:08 10° N
Cosmos 468 Rocket 4.1 20:48:01 10° S 20:53:10 58° ESE 20:58:19 10° NNE
Cosmos 1937 Rocket 4.4 20:51:39 10° N 20:56:16 32° ENE 21:00:52 10° SE
Resurs 1-3 3.7 20:52:04 10° SSE 20:56:23 62° ENE 21:00:43 10° N
Cosmos 1763 Rocket 4.0 20:52:50 10° S 20:57:43 39° ESE 21:02:37 10° NE
Cosmos 304 Rocket 4.2 20:53:02 10° SSW 20:57:50 72° WNW 21:02:39 10° NNE
Cosmos 1697 Rocket 4.5 20:56:17 10° NW 21:01:10 31° WSW 21:06:02 10° SSW
Cosmos 841 Rocket 4.3 20:59:45 10° SSE 21:04:17 30° E 21:08:51 10° NE
Cosmos 1500 4.4 21:01:09 10° NNW 21:04:51 45° W 21:08:32 10° SSW
Cosmos 1725 Rocket 4.2 21:00:08 10° S 21:06:19 80° W 21:12:33 10° N
deb Kosmos-1763 4.0 21:04:08 10° SSW 21:07:49 79° ESE 21:11:32 10° NNE
Cosmos 1378 Rocket 3.8 21:04:30 10° SSW 21:08:47 73° W 21:13:06 10° N
BREEZE-M DEB (TANK) 1.3 21:06:30 10° WNW 21:09:46 71° SW 21:11:29 13° SE
BREEZE-M DEB (TANK) 2.1 21:08:09 10° NW 21:10:20 78° NNE 21:13:55 11° ESE
Tsikada Rocket 4.1 21:04:42 10° N 21:11:10 89° E 21:17:35 10° S
Cosmos 2360 Rocket 3.5 21:08:03 10° N 21:12:40 25° NE 21:17:11 10° ESE
Atlas Centaur 2 3.0 21:10:46 10° WSW 21:13:36 18° SSW 21:16:08 10° SSE
Cosmos 1975 Rocket 3.1 21:09:44 10° S 21:13:57 56° E 21:18:11 10° NNE
NOSS 3-2 (A) 4.2 21:08:30 10° SW 21:14:15 57° NW 21:20:40 10° NNE
USA 234 3.3 21:08:11 10° NE 21:14:41 60° SE 21:21:08 10° SSW
ERS-2 2.3 21:11:09 10° S 21:14:49 73° WSW 21:18:31 10° NNW
Cosmos 1980 Rocket 3.4 21:10:11 10° NW 21:15:29 42° WSW 21:20:46 10° S
Abrixas rocket 4.0 21:12:38 10° W 21:15:35 33° NNW 21:18:33 10° NE
Okean 1 Rocket 3.4 21:13:07 10° NNW 21:17:26 66° W 21:21:43 10° S
USA 186 3.2 21:14:26 10° SSW 21:17:28 38° W 21:20:39 10° NNW
Cosmos 1975 2.8 21:15:04 10° N 21:19:07 90° E 21:23:07 10° S
Cosmos 1666 2.7 21:15:33 10° N 21:19:26 75° E 21:23:17 10° SSE
Meteor 1-19 Rocket 4.4 21:14:08 10° S 21:19:58 65° E 21:25:49 10° NNE
NOSS 3-2 (C) 3.8 21:15:04 10° SW 21:20:55 71° NW 21:27:24 10° NNE
ISS -0.8 21:19:58 10° WNW 21:22:11 17° NNW 21:24:24 10° NNE
Cosmos 2084 3.8 21:19:17 10° SW 21:23:37 67° NW 21:27:44 10° NNE
Tiangong 2 2.3 21:20:45 10° W 21:23:46 42° N 21:26:48 10° ENE
SAR-Lupe-3 4.5 21:23:16 10° NNE 21:26:53 79° ESE 21:30:27 10° S
Shenzhou-11 Module 2.6 21:24:06 10° WNW 21:27:01 50° NNE 21:29:32 13° E
Meteor 2-9 Rocket 4.5 21:22:52 10° N 21:28:03 47° ENE 21:32:34 14° SSE
Cosmos 292 Rocket 4.0 21:24:06 10° S 21:28:39 46° ESE 21:33:12 10° NNE
ATLAS CENTAUR R/B 4.2 21:24:20 10° SW 21:30:17 85° NW 21:49:02 10° NE
ERS-1 Rocket 4.1 21:27:43 14° ESE 21:31:06 28° ENE 21:35:19 10° N
Cosmos 1544 Rocket 4.3 21:27:28 10° N 21:31:37 37° ENE 21:34:36 17° SE
Cosmos 1743 2.8 21:30:55 10° N 21:34:44 75° W 21:38:32 10° S
CENTAUR R/B 2.4 21:31:17 10° SSW 21:37:04 70° ESE 21:43:43 10° NE
ATLAS CENTAUR R/B 4.2 21:34:18 10° WNW 21:37:11 16° WSW 21:40:07 10° SSW
Iridium 2 3.6 21:33:47 10° S 21:37:35 75° E 21:41:25 10° N
SJ 16-02 2.9 21:37:50 10° NNE 21:41:19 22° ENE 21:43:26 16° E
Cosmos 2333 Rocket 4.4 21:39:31 10° NNE 21:41:44 12° NE 21:43:57 10° ENE
Cosmos 1898 Rocket 3.8 21:36:50 10° NNW 21:42:06 67° WSW 21:47:11 11° S
Helios 1B rocket 4.3 21:40:51 10° ENE 21:42:55 13° E 21:42:55 13° E
Cosmos 2233 Rocket 4.4 21:37:46 10° SSW 21:43:52 64° W 21:50:03 10° N
Cosmos 1356 3.9 21:42:01 21° SSE 21:43:56 40° E 21:47:13 10° NNE
Cosmos 1814 Rocket 4.1 21:38:56 10° SSW 21:44:10 83° WNW 21:49:31 10° NNE
CZ-4C R/B 4.2 21:38:18 10° NNW 21:44:14 27° NE 21:50:36 10° E
COSMOS 2428 4.4 21:41:08 10° N 21:45:11 20° NE 21:48:38 12° E
Cosmos 1536 Rocket 4.1 21:44:47 19° SSE 21:47:24 38° E 21:51:33 10° NNE
Resurs 01 Rocket 3.1 21:46:43 10° SSW 21:50:41 33° W 21:54:41 10° NNW
Cosmos 1833 4.2 21:45:39 10° SSW 21:51:21 70° ESE 21:57:00 10° NNE
H-2A R/B 2.2 21:48:25 20° SE 21:51:39 54° ENE 21:56:34 10° N
Meteor 2-4 Rocket 3.6 21:48:06 10° S 21:53:31 87° ESE 21:59:08 10° N
Cosmos 990 Rocket 4.2 21:49:33 10° NNW 21:54:46 72° WSW 21:58:52 17° S
SL-08 RB Rocket 3.9 21:52:37 23° SE 21:55:19 57° ENE 21:59:48 10° N
Aureole 2 Rocket 1.7 21:57:12 10° NNW 22:00:06 76° ENE 22:00:42 49° SE
Lacrosse 5 rocket 2.3 21:56:16 10° NNW 22:00:20 39° NE 22:02:25 23° E
ARGOS 3.1 21:56:26 18° SSE 22:00:28 85° ENE 22:05:54 10° NNW
Cosmos 1515 3.7 22:00:44 26° SSE 22:02:42 62° E 22:06:30 10° NNE
Cosmos 2322 Rocket 2.8 22:02:23 10° NNW 22:07:48 50° WSW 22:12:02 16° S
Cosmos 2322 4.1 22:02:32 10° NNW 22:08:07 50° ENE 22:10:59 27° SE
Cosmos 2237 Rocket 4.4 22:09:20 10° NNE 22:11:14 12° NE 22:13:09 10° ENE
DMSP B5D2-2 4.2 22:08:19 10° NNE 22:13:30 53° E 22:16:12 27° SSE
SL-16 R/B 3.3 22:12:41 10° NW 22:17:55 39° WSW 22:22:11 15° SSW
CSL-04 DEB 4.5 22:19:57 33° S 22:21:45 77° WSW 22:25:52 10° NNW
Cosmos 1340 Rocket 3.8 22:18:30 10° SSW 22:22:24 47° WNW 22:26:22 10° N
Cosmos 2150 Rocket 4.5 22:17:34 10° NNW 22:22:49 57° WSW 22:25:54 24° S
MetOp-B 4.4 22:23:56 24° S 22:27:13 65° WSW 22:32:33 10° NNW
Cosmos 1025 Rocket 3.3 22:27:27 44° SE 22:28:10 48° E 22:32:23 10° NNE
Cosmos 540 Rocket 3.6 22:23:09 10° SSW 22:28:18 76° WNW 22:33:31 10° NNE
Cosmos 2034 Rocket 3.9 22:29:18 19° S 22:33:50 86° W 22:40:02 10° N
Cosmos 2219 3.6 22:34:42 38° SE 22:35:59 44° ESE 22:41:24 10° NE
Cosmos 2237 4.1 22:33:10 10° NNW 22:38:55 87° ENE 22:41:05 40° SSE
SPOT 5 2.6 22:37:54 50° SSE 22:39:00 78° ENE 22:43:36 10° N
Terra 2.5 22:38:20 35° E 22:39:14 38° ENE 22:43:38 10° N
USA 245 3.5 22:38:32 48° SSW 22:39:18 61° W 22:43:35 10° NNW
Cosmos 1544 4.3 22:38:20 10° NNE 22:41:11 29° ENE 22:41:11 29° ENE
Spot 1 4.3 22:44:11 47° E 22:44:26 47° ENE 22:48:22 10° N
Meteor 1-15 Rocket 4.5 22:44:26 10° NNW 22:50:06 66° W 22:52:34 34° SSW
Helios 1A 3.1 22:51:27 55° SSW 22:52:10 67° WSW 22:56:20 10° NNW
Okean 2 3.7 22:52:12 45° SW 22:53:17 64° W 22:57:26 10° N
DELTA 2 R/B (1) 3.8 22:48:40 10° SW 22:53:20 46° S 22:53:20 46° S
CZ-2C R/B 3.5 22:51:02 10° NNE 22:56:06 34° E 22:56:06 34° E
Cosmos 2360 Rocket 2.9 22:51:29 10° NW 22:56:51 46° WSW 22:58:58 32° SSW
Cosmos 372 Rocket 4.0 22:52:10 10° NNW 22:57:17 72° WSW 22:58:30 51° S
USA 234 4.5 22:51:24 10° NE 22:57:29 42° NNW 23:03:34 10° W
BREEZE M DEB (TANK) 3.2 22:52:16 10° WNW 22:58:31 38° SW 22:58:38 38° SW
Cosmos 1634 Rocket 4.1 22:58:15 45° SSE 23:00:02 62° E 23:06:17 10° NNE
Cosmos 2219 Rocket 2.5 22:54:57 10° NNW 23:00:25 52° ENE 23:01:38 44° ESE
Tiangong 2 2.4 22:57:47 10° WNW 23:00:15 39° NNW 23:00:15 39° NNW
Cosmos 2333 4.1 22:56:09 10° NNW 23:01:51 83° ENE 23:03:12 54° SSE
Cosmos 1356 Rocket 4.0 23:05:19 45° SW 23:06:15 56° W 23:10:29 10° N
ERS-1 Rocket 4.3 23:07:42 23° SW 23:09:45 32° W 23:14:13 10° NW
COSMOS 2455 3.6 23:10:58 34° E 23:10:58 34° E 23:15:34 10° NE
Cosmos 1892 Rocket 4.2 23:14:31 44° ENE 23:14:31 44° ENE 23:17:55 10° NNE
Nimbus 7 Rocket 4.3 23:09:39 10° NNE 23:15:34 78° ESE 23:16:59 54° S
Cosmos 192 4.2 23:16:53 75° ESE 23:16:53 75° ESE 23:21:48 10° NNE
CZ-2C R/B 3.1 23:16:09 61° ESE 23:16:56 70° ENE 23:22:31 10° N
Helios 1B rocket 3.4 23:14:28 10° N 23:18:25 44° WNW 23:19:16 38° WSW
SJ 16-02 2.6 23:16:00 10° NW 23:19:55 31° W 23:20:26 30° WSW
Cosmos 1538 Rocket 4.3 23:24:21 50° E 23:24:21 50° E 23:28:52 10° NNE
Cosmos 2228 3.7 23:22:16 10° N 23:25:44 45° NE 23:25:44 45° NE
Cosmos 2333 Rocket 2.1 23:21:14 10° NNW 23:26:58 77° ENE 23:27:41 67° SE
Okean 1-7 Rocket 3.8 23:27:08 64° W 23:27:21 65° W 23:31:53 10° N
IGS 5A 4.1 23:28:32 49° W 23:28:32 49° W 23:32:21 10° NNW
SL-16 R/B 4.1 23:25:09 10° N 23:29:07 19° NE 23:30:55 17° ENE
COSMOS 2428 2.8 23:24:17 10° NNW 23:29:53 62° WSW 23:30:38 57° SW
H-2A R/B 4.2 23:29:02 11° WSW 23:31:25 15° W 23:34:21 10° NW
CZ-4C R/B 2.9 23:26:09 10° NW 23:33:32 80° WSW 23:35:47 52° SSE
Cosmos 1726 Rocket 3.8 23:30:00 10° N 23:33:54 68° N 23:33:54 68° N
Cosmos 1980 3.9 23:33:10 10° NNW 23:38:43 56° ENE 23:39:12 55° E
Lacrosse 5 rocket 3.3 23:35:57 10° WNW 23:38:05 20° W 23:38:05 20° W
Cosmos 2297 Rocket 2.4 23:44:24 57° E 23:44:24 57° E 23:49:27 10° NNE
Cosmos 2227 Rocket 2.1 23:47:43 72° E 23:47:43 72° E 23:53:10 10° NNE
Cosmos 1953 4.2 23:45:38 10° NNE 23:47:46 23° NE 23:47:46 23° NE
Cosmos 2058 Rocket 3.5 23:47:02 10° N 23:50:47 61° N 23:50:47 61° N
